Temp
13 13 13 14 14 14 14 14 14 16 17 17 17 18 19 20 20 21 21 22 21 21 23 24 24 24 24 24 24 22 20 19 18 17 17 17 17 17 17 17 17 17 18 17
13 12 14 14 14 13 13 13 14 15 16 16 16 16 18 19 19 19 20 20 20 20 20 22 23 24 24 24 24 23 21 20 19 17 17 17 17 17 17 17 17 17 17 17
11 12 13 13 13 12 13 13 13 13 15 15 15 15 16 18 18 18 18 19 19 20 20 20 22 23 24 24 24 23 21 20 19 18 17 17 17 17 17 17 17 17 17 18
11 12 12 12 12 13 11 13 13 13 12 12 14 12 14 17 18 19 19 18 19 18 19 19 20 21 22 22 24 24 22 19 19 18 17 16 17 17 17 17 17 17 17 17
9 11 11 11 11 13 11 12 11 12 12 12 12 12 14 16 17 18 19 19 19 19 19 19 19 20 20 21 21 24 22 20 19 19 17 17 17 17 17 17 17 17 16 17
11 11 11 11 11 12 13 9 8 9 11 9 12 12 13 14 14 15 16 15 14 13 13 16 19 19 20 20 20 21 22 20 19 19 18 17 17 17 18 17 17 17 16 16
8 11 9 8 9 12 12 6 6 8 9 9 8 7 10 9 13 14 15 14 13 12 11 11 12 14 16 20 20 20 21 21 20 19 19 18 17 17 18 18 17 16 16 16
6 6 9 9 9 9 10 10 5 5 7 8 12 12 6 9 11 12 13 13 12 11 10 9 10 11 13 16 19 21 21 20 20 19 19 18 17 17 17 18 18 16 17 18
4 6 8 9 10 9 9 8 10 7 8 8 11 13 8 9 11 12 12 12 12 11 9 8 8 9 13 15 16 17 21 20 20 19 18 19 18 17 17 18 18 17 17 18
6 4 7 8 8 9 9 9 6 7 5 6 10 9 6 9 10 9 10 11 10 10 8 6 6 8 12 14 15 16 18 20 19 20 19 18 18 17 17 17 18 17 17 17
7 4 5 7 6 6 7 7 5 4 6 5 5 8 11 9 10 10 10 9 8 8 6 5 4 7 11 13 13 15 17 20 21 19 19 19 17 17 17 17 17 17 17 17
6 2 3 5 7 8 8 3 3 3 3 3 5 7 12 11 12 11 9 7 7 5 4 3 4 5 7 11 12 13 14 17 21 20 19 19 18 17 17 17 17 17 17 16
6 4 2 3 6 4 3 4 3 3 3 3 3 6 11 11 11 10 8 5 5 4 2 2 3 3 3 7 8 10 12 14 16 19 19 19 18 18 17 17 17 16 16 16
5 4 2 2 2 3 2 3 4 3 3 3 4 6 8 10 9 8 6 5 4 4 2 1 1 2 3 4 5 7 9 10 13 15 16 18 19 18 17 17 17 16 16 16
6 2 3 3 4 5 5 5 6 4 4 3 5 6 8 10 7 7 5 3 5 4 2 2 1 1 2 2 4 4 6 7 9 11 13 14 15 17 18 16 16 16 16 16
6 3 4 3 5 5 5 6 6 6 7 7 8 8 10 8 8 6 4 4 4 3 3 2 1 1 1 2 2 3 4 5 7 8 10 12 13 14 15 16 16 16 17 16
4 3 3 2 5 5 3 6 7 7 8 8 7 7 5 8 7 5 2 3 3 3 4 2 2 1 1 1 2 2 3 4 4 6 7 8 11 12 13 14 15 16 16 16
4 4 3 2 3 2 7 9 8 3 4 3 4 6 7 7 6 2 2 2 3 4 4 5 4 2 2 2 2 2 2 2 3 4 5 6 8 10 12 12 13 15 16 16
7 5 2 3 4 6 6 7 5 4 5 6 5 7 7 6 6 1 2 3 3 5 5 5 5 4 4 2 2 2 2 2 2 2 3 4 5 6 8 11 12 13 14 15
8 7 4 3 2 3 5 4 6 9 6 4 6 7 6 4 3 4 2 3 4 5 5 5 5 5 4 3 1 1 1 1 2 2 2 2 3 4 5 7 10 12 13 14
5 5 4 4 3 6 7 8 8 6 2 4 6 7 7 5 4 2 2 3 5 6 5 5 4 4 3 3 2 1 -0 0 1 2 3 2 2 3 4 4 7 9 12 14
6 5 4 5 3 4 6 7 6 7 8 7 6 7 7 7 6 3 3 4 5 6 5 4 4 3 3 2 2 1 0 -1 -1 1 3 3 2 2 3 4 4 5 8 11
5 6 5 4 5 7 7 7 8 8 7 7 6 6 6 6 6 6 5 5 5 5 5 4 3 2 2 1 1 1 0 -0 -1 -0 2 4 3 2 3 3 3 4 4 6
7 7 5 5 7 7 7 8 7 6 6 6 5 5 5 5 5 5 5 5 5 5 4 3 3 2 1 1 0 -0 -0 -1 -1 -2 -0 1 1 3 3 3 3 3 3 4
5 6 5 6 7 7 7 6 3 6 6 5 4 4 4 4 4 4 4 4 4 3 3 3 2 1 1 -0 -1 -1 -1 -2 -2 -2 -2 -2 1 -0 2 3 2 2 3 3
4 4 4 4 6 7 6 5 6 6 5 4 4 3 3 3 3 2 3 3 3 2 2 2 1 1 -0 -1 -1 -2 -1 -2 -2 -2 -2 -2 -2 -1 -1 0 4 3 3 3
Height
1516 1515 1510 1503 1501 1498 1497 1495 1490 1484 1479 1479 1472 1468 1460 1459 1457 1458 1457 1458 1461 1459 1458 1458 1460 1462 1465 1467 1470 1469 1474 1481 1489 1496 1504 1510 1512 1516 1522 1525 1529 1530 1536 1542
1517 1514 1507 1504 1504 1504 1501 1497 1491 1483 1478 1476 1473 1469 1463 1461 1458 1460 1457 1457 1458 1458 1456 1454 1454 1456 1458 1461 1464 1464 1465 1471 1478 1486 1495 1503 1507 1511 1515 1521 1524 1525 1531 1536
1520 1515 1511 1506 1505 1504 1499 1496 1492 1488 1481 1474 1471 1465 1462 1459 1458 1456 1455 1454 1455 1455 1455 1452 1450 1449 1450 1454 1457 1458 1458 1463 1469 1477 1489 1498 1505 1511 1513 1516 1519 1520 1523 1529
1518 1514 1510 1508 1505 1502 1502 1495 1492 1489 1488 1484 1473 1474 1464 1454 1447 1443 1443 1446 1446 1448 1449 1448 1445 1441 1444 1447 1450 1454 1451 1455 1462 1470 1478 1486 1493 1496 1501 1504 1510 1513 1515 1521
1523 1516 1511 1507 1506 1501 1503 1499 1497 1487 1483 1481 1475 1474 1460 1450 1445 1439 1436 1437 1436 1437 1442 1441 1442 1438 1437 1440 1444 1447 1448 1448 1453 1460 1468 1477 1484 1490 1496 1499 1504 1507 1509 1513
1517 1514 1512 1509 1506 1502 1499 1505 1503 1493 1480 1483 1469 1469 1459 1454 1455 1442 1438 1437 1438 1438 1437 1436 1436 1439 1436 1436 1439 1442 1441 1443 1446 1452 1459 1467 1474 1482 1487 1491 1495 1498 1501 1505
1523 1509 1515 1516 1514 1503 1499 1513 1508 1488 1480 1478 1483 1485 1470 1475 1462 1455 1446 1444 1443 1443 1438 1435 1433 1431 1433 1433 1432 1438 1438 1437 1440 1446 1452 1458 1464 1472 1477 1481 1484 1487 1491 1495
1528 1525 1513 1520 1517 1510 1501 1497 1513 1507 1492 1481 1465 1454 1481 1473 1467 1456 1446 1444 1444 1443 1443 1439 1434 1429 1426 1421 1425 1428 1429 1428 1430 1434 1439 1449 1456 1463 1468 1472 1474 1476 1479 1485
1541 1529 1522 1521 1513 1514 1506 1500 1497 1498 1489 1478 1460 1445 1467 1471 1467 1457 1453 1449 1446 1444 1442 1436 1429 1426 1421 1417 1413 1416 1422 1413 1421 1424 1430 1437 1444 1452 1456 1463 1466 1467 1470 1475
1540 1533 1526 1520 1518 1510 1506 1505 1509 1501 1507 1489 1458 1462 1487 1476 1469 1468 1459 1454 1452 1446 1441 1438 1431 1424 1419 1416 1413 1410 1412 1411 1395 1416 1422 1427 1433 1441 1448 1454 1457 1459 1462 1467
1536 1540 1531 1526 1522 1517 1509 1508 1516 1515 1504 1503 1493 1472 1465 1471 1467 1463 1465 1463 1460 1453 1446 1439 1433 1425 1418 1414 1413 1407 1405 1404 1394 1406 1415 1419 1425 1431 1439 1445 1450 1453 1456 1459
1539 1545 1538 1528 1521 1514 1507 1528 1530 1526 1519 1516 1502 1475 1464 1464 1464 1465 1465 1465 1460 1456 1451 1443 1434 1427 1421 1415 1411 1406 1399 1395 1400 1401 1408 1414 1417 1423 1429 1434 1440 1446 1447 1451
1539 1539 1540 1528 1518 1521 1527 1525 1528 1528 1524 1516 1509 1480 1471 1470 1465 1465 1467 1469 1463 1457 1450 1443 1435 1432 1427 1416 1410 1402 1396 1391 1388 1395 1399 1406 1411 1416 1420 1424 1430 1436 1441 1444
1539 1537 1541 1539 1535 1531 1528 1522 1518 1519 1519 1511 1501 1489 1473 1467 1468 1465 1464 1457 1458 1455 1452 1444 1441 1436 1429 1418 1409 1401 1395 1391 1387 1387 1389 1395 1399 1404 1407 1412 1418 1426 1431 1436
1532 1536 1535 1530 1527 1520 1513 1509 1504 1505 1502 1505 1490 1485 1472 1470 1472 1470 1467 1463 1460 1456 1451 1447 1441 1439 1424 1417 1409 1403 1398 1393 1387 1386 1386 1388 1390 1395 1398 1404 1408 1415 1421 1425
1530 1533 1528 1522 1519 1512 1507 1500 1494 1489 1483 1478 1475 1470 1468 1471 1471 1470 1469 1465 1463 1459 1452 1448 1442 1430 1430 1421 1413 1408 1403 1397 1392 1389 1385 1385 1387 1387 1396 1400 1403 1408 1410 1415
1529 1528 1528 1520 1512 1506 1504 1486 1481 1477 1474 1469 1472 1473 1478 1469 1470 1469 1470 1468 1464 1460 1454 1450 1445 1439 1435 1426 1418 1411 1407 1402 1395 1391 1387 1385 1385 1386 1386 1387 1394 1397 1399 1404
1524 1523 1523 1521 1511 1508 1482 1476 1477 1485 1485 1484 1481 1477 1474 1470 1471 1472 1470 1468 1464 1458 1454 1449 1445 1441 1436 1432 1424 1417 1411 1405 1400 1395 1389 1384 1381 1381 1382 1381 1382 1386 1390 1392
1512 1515 1522 1516 1504 1490 1485 1482 1482 1483 1481 1481 1479 1473 1470 1471 1471 1469 1470 1467 1464 1458 1453 1449 1445 1440 1436 1432 1427 1421 1417 1412 1405 1399 1394 1390 1386 1381 1379 1378 1377 1379 1381 1385
1503 1505 1512 1511 1511 1499 1487 1491 1481 1470 1473 1485 1477 1473 1472 1472 1471 1470 1467 1465 1462 1457 1454 1450 1446 1441 1436 1430 1426 1424 1420 1417 1409 1403 1401 1395 1390 1384 1380 1376 1373 1373 1374 1375
1505 1504 1508 1504 1503 1488 1481 1478 1473 1475 1493 1479 1475 1472 1470 1469 1470 1469 1465 1463 1459 1455 1451 1447 1444 1441 1437 1433 1428 1425 1419 1414 1410 1406 1400 1398 1391 1388 1383 1379 1374 1371 1371 1370
1497 1498 1497 1494 1497 1492 1485 1481 1480 1478 1474 1473 1474 1470 1469 1466 1464 1463 1461 1459 1456 1453 1451 1448 1445 1439 1436 1432 1430 1425 1420 1416 1411 1406 1405 1396 1393 1391 1385 1381 1379 1374 1370 1369
1494 1491 1491 1494 1485 1480 1480 1478 1476 1472 1471 1471 1472 1470 1467 1464 1461 1459 1458 1457 1454 1452 1449 1446 1443 1440 1436 1431 1428 1423 1419 1413 1408 1405 1400 1396 1393 1388 1385 1382 1378 1375 1372 1368
1489 1485 1484 1485 1480 1477 1475 1473 1472 1471 1472 1469 1468 1468 1466 1463 1461 1457 1456 1454 1452 1450 1448 1446 1442 1438 1434 1429 1425 1422 1418 1413 1408 1404 1398 1397 1391 1386 1385 1382 1378 1375 1371 1367
1491 1488 1483 1478 1475 1474 1471 1471 1474 1470 1468 1468 1468 1468 1465 1463 1461 1458 1455 1453 1451 1448 1447 1444 1440 1436 1433 1429 1425 1419 1415 1411 1407 1402 1396 1391 1384 1384 1380 1378 1377 1375 1371 1370
1490 1485 1482 1475 1474 1470 1468 1469 1467 1465 1465 1467 1466 1465 1464 1462 1460 1458 1456 1453 1450 1447 1444 1441 1439 1435 1430 1426 1424 1420 1415 1409 1405 1401 1397 1395 1385 1381 1378 1378 1375 1375 1370 1370
Wind_Speed
13 11 12 16 18 18 19 21 22 22 23 23 23 23 24 28 30 27 23 22 25 31 30 31 29 32 37 35 30 45 48 49 45 45 48 37 43 39 38 37 37 37 34 41
11 12 15 12 14 15 18 20 21 21 22 21 22 24 24 23 27 30 30 30 31 35 36 31 30 29 34 32 36 43 50 50 51 49 48 45 45 40 44 36 38 38 35 37
12 15 19 18 14 16 18 18 19 22 22 25 23 23 20 25 32 33 33 34 35 32 38 43 33 34 29 39 35 36 50 52 54 52 46 49 37 38 37 41 37 40 39 36
11 16 19 19 17 17 17 18 18 20 18 16 20 16 23 24 22 21 32 41 40 42 40 38 43 40 34 24 35 31 47 52 54 51 49 48 47 46 43 47 43 43 44 41
15 18 17 17 19 18 14 21 21 23 19 21 22 13 17 20 23 22 19 29 30 35 44 42 46 44 42 38 27 37 38 49 53 49 50 50 51 42 46 43 46 42 45 45
14 22 13 18 14 20 14 13 21 22 16 15 23 17 17 11 16 19 22 28 31 28 27 24 43 45 45 44 42 30 40 45 48 48 51 53 53 51 45 45 45 48 46 47
20 6 5 14 15 14 17 5 6 6 7 10 12 8 4 13 18 18 17 24 24 27 31 32 31 23 21 44 48 42 39 45 43 46 49 54 55 54 47 48 49 52 53 50
10 9 4 17 17 21 18 14 4 7 6 15 17 8 5 12 26 30 31 29 29 28 29 30 31 34 30 19 36 42 36 45 46 49 53 53 54 50 55 46 50 53 58 54
10 10 26 20 17 13 14 12 16 12 17 14 9 10 16 15 20 24 29 30 32 27 31 35 36 36 32 30 26 25 42 52 51 48 52 50 53 56 52 51 51 55 55 50
9 20 15 17 24 18 9 12 6 3 6 6 10 9 4 16 20 19 18 28 35 33 34 36 38 38 34 32 34 33 30 40 55 48 46 51 53 57 52 52 49 50 53 50
13 6 13 18 16 18 15 11 5 4 6 4 6 5 1 12 13 19 23 28 30 30 32 35 35 34 31 27 35 32 32 33 35 47 48 48 52 55 58 48 54 49 48 50
5 3 11 22 22 20 7 8 9 4 8 8 10 15 15 20 16 21 24 29 27 27 26 28 32 35 32 26 32 30 26 22 34 43 47 45 47 51 51 55 49 51 48 49
7 4 13 14 13 9 5 10 4 6 9 12 11 12 17 26 20 25 23 27 24 21 24 27 31 37 36 30 28 22 17 13 6 21 43 46 45 45 48 53 57 47 48 47
10 13 13 13 15 16 20 18 15 10 7 13 15 23 26 21 18 25 25 28 21 20 21 26 31 36 32 32 30 24 23 19 12 8 6 37 46 47 50 53 51 54 47 48
7 7 10 15 18 20 22 20 20 17 15 15 21 22 23 17 16 20 25 24 21 18 17 24 25 32 38 36 32 33 26 24 21 15 7 10 16 44 49 50 46 48 49 46
3 7 12 21 20 21 22 23 23 23 24 22 22 24 12 19 18 21 18 20 20 24 20 22 21 29 36 40 36 31 32 26 20 18 17 12 12 10 36 43 42 42 45 46
14 11 10 17 16 19 12 16 15 17 17 19 15 10 14 10 17 16 16 16 17 21 21 21 26 18 27 37 38 37 34 32 29 20 15 14 16 15 12 23 42 43 43 43
14 13 9 12 17 8 17 8 14 7 5 9 6 5 13 14 18 14 16 16 20 21 22 22 21 18 22 28 33 35 35 35 32 32 26 20 13 15 20 16 12 32 43 45
18 11 4 4 10 17 12 11 4 3 7 12 11 14 15 20 15 2 16 17 18 22 20 22 24 19 18 24 23 24 30 31 33 33 30 29 26 19 13 20 18 11 16 36
11 9 6 10 11 7 3 9 27 15 4 18 20 13 15 16 9 7 18 20 19 20 20 22 22 21 18 23 27 18 21 24 29 33 28 27 27 26 24 16 19 22 18 18
4 4 9 10 9 8 10 20 24 11 3 11 16 16 15 8 4 10 15 17 20 19 20 21 20 19 20 18 23 22 23 24 19 25 29 23 25 25 24 24 18 15 28 23
9 7 8 6 5 8 14 19 11 13 18 11 16 19 20 14 12 9 15 19 19 19 18 18 20 20 19 20 21 20 20 21 23 16 22 26 21 24 23 22 24 20 8 26
10 8 7 6 7 23 26 21 20 17 20 11 15 20 22 21 15 13 16 18 20 18 18 19 19 19 19 20 20 22 22 26 24 22 17 19 22 20 22 22 22 24 21 14
16 20 10 13 18 18 24 24 18 10 14 18 16 17 21 20 18 16 16 17 20 18 18 19 19 19 20 21 20 20 22 26 25 25 25 20 20 20 18 18 20 21 23 22
15 19 16 18 20 25 21 15 18 15 18 19 14 14 17 19 18 17 18 18 18 18 18 17 19 20 20 20 20 21 22 24 25 24 27 28 26 22 19 17 19 19 16 20
22 18 12 12 23 22 15 19 19 18 13 13 16 16 16 17 16 15 15 16 16 18 18 19 18 20 21 20 20 20 23 23 25 23 22 27 28 25 23 22 19 10 13 13
Wind_Direction
325 294 286 330 334 324 317 305 292 290 294 293 289 285 287 292 295 294 278 265 264 274 274 261 242 233 235 238 237 202 202 201 203 203 205 202 200 205 201 206 206 221 215 204
316 311 312 309 306 303 292 285 283 287 285 276 274 274 277 278 278 278 278 277 273 273 281 277 263 254 246 236 233 211 207 205 204 208 210 203 204 205 204 203 207 218 221 213
310 299 299 288 297 290 286 290 294 293 296 293 292 283 276 274 278 280 277 276 274 265 267 273 274 263 256 231 231 217 205 206 203 208 204 205 210 207 207 203 208 212 223 222
304 314 313 310 294 286 296 303 294 293 293 287 297 296 289 289 282 263 242 240 249 252 258 262 266 269 264 263 233 234 208 202 202 202 202 204 205 207 209 206 203 212 223 226
295 297 292 283 290 299 304 323 319 295 286 286 277 276 280 278 272 264 256 261 265 244 242 244 256 263 265 264 270 231 217 200 206 206 206 206 207 212 210 209 206 209 215 226
313 314 340 306 327 307 298 344 329 291 277 271 268 261 266 301 2 15 15 21 18 5 351 334 241 246 262 266 266 269 221 200 208 210 215 209 210 209 212 210 208 208 210 218
321 330 50 25 326 305 304 240 294 270 269 276 329 323 29 357 1 359 1 4 3 358 353 348 336 322 297 253 259 258 228 203 209 217 220 218 215 213 213 210 210 208 208 216
340 321 12 349 306 305 299 300 304 308 330 304 307 270 82 10 352 358 0 356 353 350 347 342 336 330 319 303 261 252 236 205 207 218 222 224 217 214 214 214 212 216 221 229
311 301 321 317 316 333 307 308 324 294 287 276 273 269 50 9 350 355 359 349 350 352 346 340 335 328 322 308 288 292 251 209 210 214 222 228 223 214 217 215 218 220 227 234
303 303 311 314 328 309 318 313 327 314 293 298 306 357 7 12 350 13 350 1 346 346 342 338 338 328 318 305 305 293 277 250 203 214 219 221 225 219 216 216 218 219 224 230
319 310 302 317 319 312 314 328 341 281 260 296 324 289 128 25 3 1 354 355 340 347 339 334 336 326 322 309 312 309 292 262 239 213 212 219 220 219 219 219 217 221 222 228
72 231 298 309 305 301 352 61 20 343 344 306 282 278 304 350 343 354 356 351 345 344 340 338 338 340 341 336 324 320 315 306 234 218 218 215 219 221 221 220 222 219 221 224
345 297 311 304 319 56 5 318 209 239 276 278 290 291 319 315 345 351 3 343 352 349 352 356 357 351 342 358 1 343 335 307 314 232 219 222 221 227 227 228 227 224 222 222
257 269 274 285 292 303 294 289 284 261 268 283 279 296 296 312 339 342 355 354 345 351 350 355 357 353 347 4 12 351 335 325 317 262 235 220 223 225 228 233 230 226 225 223
283 261 273 277 282 284 285 286 283 271 252 244 275 281 285 308 340 335 355 350 338 340 347 352 350 354 3 5 14 12 356 336 322 318 298 237 233 227 229 225 226 230 227 225
256 270 286 286 286 283 284 282 278 274 272 270 263 272 310 330 337 354 350 359 7 6 357 339 342 7 4 11 20 16 17 7 357 329 306 284 248 235 229 235 234 233 232 229
282 275 284 281 298 305 293 277 279 281 290 269 264 323 305 345 354 348 345 338 358 355 353 356 355 331 347 3 14 18 18 21 22 13 351 323 278 255 229 228 233 233 226 226
254 265 273 284 289 293 317 334 357 328 34 2 327 299 326 5 349 38 4 349 344 346 353 350 345 357 351 360 11 8 10 15 18 22 21 14 343 289 260 246 230 229 228 223
231 244 272 274 304 304 338 357 334 300 333 345 339 345 352 4 342 356 354 343 339 329 342 350 345 337 356 345 353 355 357 2 6 13 16 15 18 12 310 266 251 223 226 231
242 226 243 287 295 291 174 301 286 309 292 326 318 350 2 358 357 345 335 332 336 336 345 347 348 357 360 348 345 356 347 359 3 357 360 10 10 16 18 360 278 253 243 226
247 248 259 266 270 270 17 342 332 345 303 279 307 343 347 355 318 313 331 330 330 341 344 347 350 354 351 356 348 347 350 345 359 1 348 351 7 6 13 16 9 288 254 238
258 256 258 258 244 258 1 319 343 325 326 360 316 343 330 328 327 319 329 326 331 339 344 346 347 351 350 349 351 352 351 337 347 342 346 342 348 354 4 13 11 19 325 253
276 275 275 246 282 312 310 290 306 328 329 325 325 330 320 313 315 322 322 321 328 337 340 340 341 344 344 345 351 353 347 333 343 345 336 339 334 341 355 359 7 7 19 22
287 283 277 269 272 278 297 302 317 329 298 333 340 331 325 333 322 323 320 323 325 332 338 334 336 341 343 341 343 344 339 332 343 339 349 339 328 332 331 346 353 360 3 12
285 296 289 286 295 296 297 321 276 316 327 321 332 326 324 328 327 327 325 324 323 326 330 333 336 336 337 338 340 339 333 338 342 344 343 346 350 339 331 325 331 339 357 354
270 271 268 272 275 283 275 278 305 316 323 321 317 317 314 312 315 317 318 315 323 324 327 330 332 332 332 338 333 334 331 335 338 343 349 331 347 346 337 322 308 307 327 336